Location: Juiz de Fora
(21.7500°S, 43.3330°W)
Time: 05:59:51
(UTC-03:00)

Hubble Space Telescope - Pass Details

Date: 23 June 2024
Orbit: 510 x 513 km, 28.5° (Epoch: 17 July)

Event Time Altitude Azimuth Distance (km) Brightness Sun altitude
Rises 17:47:21 0° 275° (W) 2,616 6.0 -6.7°
Reaches altitude 10° 17:49:39 10° 269° (W) 1,733 4.6 -7.1°
Maximum altitude 17:53:31 47° 194° (SSW) 687 1.3 -8.0°
Enters shadow 17:57:13 11° 119° (ESE) 1,667 2.6 -8.8°
